Regional Weather Roundup
Issued by NWS Burlington, VT

Home | Current Version | Previous Version | Text Only | Print | Product List | Glossary On
Versions: 1 2 3 4 5 6 7 8 9 10 11 12 13 14 15 16 17 18 19 20 21 22 23 24 25 26 27 28 29 30 31 32 33 34 35 36 37 38 39 40 41 42 43 44 45 46 47 48 49 50
000
ASUS41 KBTV 300230
RWRBTV
VERMONT REGIONAL WEATHER ROUNDUP
NATIONAL WEATHER SERVICE BURLINGTON VT
1000 PM EDT FRI MAY 29 2015

NOTE: "FAIR" INDICATES FEW OR NO CLOUDS BELOW 12,000 FEET WITH NO
SIGNIFICANT WEATHER AND/OR OBSTRUCTIONS TO VISIBILITY.

* THESE REPORTS ARE NOT UNDER NWS QUALITY CONTROL AND/OR DO NOT
  REPORT WEATHER SUCH AS PRECIPITATION AND FOG.

VTZ001>019-300300-
_____VERMONT_____


CITY           SKY/WX    TMP DP  RH WIND       PRES   REMARKS
BURLINGTON     MOCLDY    70  54  56 S7        30.14R
MONTPELIER     MOCLDY    67  55  65 S6        30.23R
MORRISVILLE    MOCLDY    64  57  78 CALM      30.19R
ST. JOHNSBURY*   N/A     66  56  70 MISG      30.16S
LYNDONVILLE*     N/A     66  52  60 S3        30.22R
MIDDLEBURY*      N/A     65  59  78 SE5       30.17S
RUTLAND*       MOCLDY    66  55  68 SE6       30.20S
SPRINGFIELD    PTCLDY    64  59  83 CALM      30.21R
HIGHGATE*        N/A     70  53  54 S6        30.12R
NEWPORT*         N/A     58  56  94 SE3       30.18R
BENNINGTON     PTCLDY    65  59  81 CALM      30.21R
SUTTON*          N/A     64 N/A N/A MISG        N/A
GALLUP MILLS*    N/A     57 N/A N/A MISG        N/A
MT. MANSFIELD*   N/A     57 N/A N/A CALM        N/A

_____LAKE CHAMPLAIN_____


CITY           SKY/WX    TMP DP  RH WIND       PRES   REMARKS
BURTON ISLAND*   N/A     70  57  64 S8          N/A
COLCHESTER RF*   N/A     66  54  63 S16         N/A
DIAMOND ISL*     N/A     70  57  64 S12         N/A

$$

NYZ007-026>031-035-052-083-300300-
_____NORTHERN NEW YORK_____


CITY           SKY/WX    TMP DP  RH WIND       PRES   REMARKS
PLATTSBURGH    MOCLDY    60  56  86 CALM      30.12R
SARANAC LAKE   PTCLDY    59  51  75 CALM      30.17R
MASSENA        CLEAR     61  57  87 CALM      30.10F
OGDENSBURG*    CLEAR     61  59  94 CALM      30.09F
POTSDAM*       CLEAR     64  55  72 CALM      30.10F
STARK FALLS*     N/A     68 N/A N/A SE12        N/A
WATERTOWN      PTCLDY    70  52  52 SE6       30.08F
ALBANY         CLOUDY    75  54  47 S8        30.18R
GLENS FALLS    MOCLDY    65  57  75 CALM      30.18R

$$
NHZ002-005-011-300300-
_____NEW HAMPSHIRE_____


CITY           SKY/WX    TMP DP  RH WIND       PRES   REMARKS
LEBANON        PTCLDY    66  58  75 S3        30.20R
KEENE          MOCLDY    64  61  88 CALM      30.23S
MT WASHINGTON  CLOUDY    48  46  93 W28         N/A
PLYMOUTH         N/A     67  64  90 NE5       30.22R
WHITEFIELD     CLOUDY    62  57  83 CALM      30.20R

$$

_____REGIONAL QUEBEC LOCATIONS_____


CITY           SKY/WX    TMP DP  RH WIND       PRES   REMARKS
MONTREAL       PTCLDY    72  54  53 SE5       30.09S
QUEBEC CITY    MOCLDY    61  55  82 CALM      30.11S
SHERBROOKE     CLEAR     59 N/A N/A CALM      30.15R

_____REGIONAL ONTARIO LOCATIONS_____


CITY           SKY/WX    TMP DP  RH WIND       PRES   REMARKS
OTTAWA         MOCLDY    63  55  77 S6        30.09R

______KEY______
VSB  - VISIBILITY IN MILES
WCI  - WIND CHILL INDEX
HX   - HEAT INDEX
$$
NNNN



USA.gov is the U.S. government's official web portal to all federal, state and local government web resources and services.